This demonstration page uses our WeatherBlox Daily Observations layout. Learn more.

Left ArrowRight Arrow

Hourly Observations for August 10, 2015

Temp ( °F °C ) Dew Point ( °F °C ) Humidity (%) Winds ( mph kmh ) Pressure ( in mb ) Visibility ( mi km ) Precip ( " mm )
12:51 am 00:51 Clear 70 21.1 66 18.9 87 87 WNW 17 28 29.89 1012 10 16 0.00 0.00
1:51 am 01:51 Clear 69 20.6 66 18.9 90 90 NNW 12 19 29.86 1011 10 16 0.00 0.00
2:51 am 02:51 Clear 70 21.1 65 18.3 84 84 NNW 6 9 29.86 1011 10 16 0.00 0.00
3:51 am 03:51 Clear 69 20.6 65 18.3 87 87 WNW 6 9 29.87 1011 10 16 0.00 0.00
4:51 am 04:51 Clear 69 20.6 66 18.9 90 90 Calm 29.87 1012 10 16 0.00 0.00
5:51 am 05:51 Sunny 69 20.6 66 18.9 90 90 E 5 7 29.90 1012 10 16 0.00 0.00
6:51 am 06:51 Sunny 72 22.2 65 18.3 79 79 E 6 9 29.92 1013 10 16 0.00 0.00
7:51 am 07:51 Sunny 75 23.9 65 18.3 71 71 ESE 6 9 29.93 1013 10 16 0.00 0.00
8:51 am 08:51 Sunny 79 26.1 64 17.8 60 60 Calm 29.93 1013 10 16 0.00 0.00
9:51 am 09:51 Sunny 83 28.3 63 17.2 51 51 Calm 29.91 1013 10 16 0.00 0.00
10:51 am 10:51 Sunny 84 28.9 65 18.3 53 53 W 8 13 29.89 1012 10 16 0.00 0.00
11:51 am 11:51 Sunny 87 30.6 65 18.3 48 48 WNW 7 11 29.87 1012 10 16 0.00 0.00
12:51 pm 12:51 Sunny 90 32.2 63 17.2 41 41 WNW 3 6 29.85 1011 10 16 0.00 0.00
1:51 pm 13:51 Sunny 93 33.9 59 15 32 32 SE 8 13 29.81 1009 10 16 0.00 0.00
2:51 pm 14:51 Sunny 94 34.4 57 13.9 29 29 VRB 3 6 29.77 1008 10 16 0.00 0.00
3:51 pm 15:51 Sunny 98 36.7 57 13.9 25 25 WNW 7 11 29.73 1007 10 16 0.00 0.00
4:51 pm 16:51 Sunny 96 35.6 59 15 29 29 WNW 9 15 29.72 1007 10 16 0.00 0.00
5:51 pm 17:51 Sunny 92 33.3 59 15 33 33 WNW 9 15 29.72 1007 10 16 0.00 0.00
6:51 pm 18:51 Sunny 90 32.2 60 15.6 37 37 WNW 8 13 29.74 1007 10 16 0.00 0.00
7:51 pm 19:51 Clear 86 30 65 18.3 49 49 NW 6 9 29.76 1008 10 16 0.00 0.00
8:51 pm 20:51 Clear 84 28.9 65 18.3 53 53 NW 5 7 29.79 1009 10 16 0.00 0.00
9:51 pm 21:51 Clear 83 28.1 77 24.8 82 82 NW 3 6 29.83 1010 10 16 0.00 0.00
10:51 pm 22:51 Clear 69 20.6 59 15 70 70 Calm 29.94 1014 10 16 0.00 0.00
11:51 pm 23:51 Clear 81 27.2 64 17.8 57 57 NNW 6 9 29.80 1009 10 16 0.00 0.00

Powered by AerisWeather